Regional Weather Roundup
Issued by NWS

Home | Current Version | Previous Version | Text Only | Print | Product List | Glossary On
Versions: 1 2 3 4 5 6 7 8 9 10 11 12 13 14 15 16 17 18 19 20 21 22 23 24 25 26 27 28 29 30 31 32 33 34 35 36 37 38 39 40 41 42 43 44 45 46 47 48 49 50
000
ASHW40 PHFO 270143
RWRHI

WEATHER ROUNDUP FOR HAWAII
NATIONAL WEATHER SERVICE HONOLULU HI
300 PM HST TUE JUL 26 2016

THIS IS AN AUTOMATED REPORT THAT HAS NOT BEEN QUALITY CONTROLLED.

NOTE..."FAIR" INDICATES FEW OR NO CLOUDS BELOW 12,000 FEET WITH NO
SIGNIFICANT WEATHER AND/OR OBSTRUCTIONS TO VISIBILITY.

* - THESE SITES REPORT LIMITED FIELDS

HIZ001>004-270200-
KAUAI-NIIHAU-

CITY           SKY/WX    TMP DP  RH WIND       PRES   REMARKS
LIHUE APT      LGT RAIN  78  74  87 NE9       30.01F FOG
PORT ALLEN*      N/A     86 N/A N/A SE25G32     N/A
POIPU*           N/A     84 N/A N/A E7G16       N/A
PRINCEVILLE*     N/A     82 N/A N/A E12G22      N/A
KOKOLE POINT*  NOT AVBL
MOLOAA DAIRY*    N/A     81  77  89 SE8G15      N/A
WAIMEA HTS*      N/A     88  66  48 S10G18      N/A  HX  90
PUU OPAE*        N/A     81  70  69 W9G15       N/A
PUU LUA*       NOT AVBL
MAKAHA RIDGE*    N/A     82  68  61 W3          N/A
$$

HIZ005>011-270200-
OAHU-

CITY           SKY/WX    TMP DP  RH WIND       PRES   REMARKS
HONOLULU       MOSUNNY   82  67  60 NE16G22   29.97F
KALAELOA       PTSUNNY   88  73  61 SE10G18   29.98F HX  95
KANEOHE MCB    CLOUDY    82  73  74 NE10      29.97S
WHEELER FIELD  FAIR      84  70  63 E12       30.01F
BELLOWS*         N/A    N/A N/A N/A NE13        N/A
KAHUKU*          N/A    N/A N/A N/A VRB9G18     N/A
WHEELER*         N/A    N/A N/A N/A E9G20       N/A
WAIANAE HARBOR   N/A    N/A N/A N/A W8          N/A
DILLINGHAM*      N/A     91  66  43 MISG        N/A  HX  94
KAHUKU TRN*      N/A     82  73  74 W9G18       N/A
KAWAILOA*        N/A     81  66  61 E13G20      N/A
KII*           NOT AVBL
MAKUA RANGE*     N/A     88  75  66 SE6G12      N/A  HX  97
OAHU FOREST NW NOT AVBL
SCHOFIELD BRK*   N/A     82  64  54 MISG        N/A
SCHOFIELD S*   NOT AVBL
WAIANAE VLY*   NOT AVBL
KUAOKALA*      NOT AVBL
HONOULIUULI*   NOT AVBL
MOKUOLOE IS*   NOT AVBL
PALEHUA*       NOT AVBL
WAIAWA PHB*    NOT AVBL
$$

HIZ012>013-270200-
MOLOKAI-

CITY           SKY/WX    TMP DP  RH WIND       PRES   REMARKS
MOLOKAI AIRPT  MOSUNNY   89  72  56 N10G17    29.97F HX  96
KALAUPAPA      NOT AVBL
MAKAPULAPAI*     N/A     84  73  70 E18G28      N/A  HX  91
MOLOKAI 1*     NOT AVBL
PUU ALII*        N/A     75  64  67 E2G8        N/A
$$

HIZ016-270200-
KAHOOLAWE-

CITY           SKY/WX    TMP DP  RH WIND       PRES   REMARKS
KAHOOLAWE*       N/A     77 N/A N/A SE1         N/A
HAKIOAWA*        N/A     81  73  77 MISG      30.38S
HONOKANAIA*      N/A     86  70  58 NE20G33     N/A  HX  90
KANELOA*         N/A     82  72  69 E23G36    30.04F
KEALIALALO*    NOT AVBL
LUA MAKIKA*    NOT AVBL
$$

HIZ014>015-270200-
LANAI-

CITY           SKY/WX    TMP DP  RH WIND       PRES   REMARKS
LANAI CITY     CLOUDY    79  71  76 W10       30.04S
LANAI 1*       NOT AVBL
$$

HIZ017>028-270200-
MAUI-

CITY           SKY/WX    TMP DP  RH WIND       PRES   REMARKS
KAHULUI        MOSUNNY   90  71  53 NE23G30   29.94S HX  96
KAPALUA-W MAUI MOSUNNY   86  68  54 NE16G22   29.97
HANA AIRPORT     N/A     84  73  70 E9        30.02S HX  91
HANA*            N/A     84 N/A N/A E9G16       N/A
HALEAKALA SUMM   N/A     54  43  66 E32         N/A
MAALAEA BAY*     N/A     88 N/A N/A N17G28      N/A
HALEAKALA*     NOT AVBL
KAUPO GAP*       N/A     86  72  62 S5G20       N/A  HX  92
KULA 1*          N/A     72  61  67 NW6G15      N/A
$$

HIZ023>026-270200-
BIG ISLAND OF HAWAII COAST AND LOWER SLOPES-

CITY           SKY/WX    TMP DP  RH WIND       PRES   REMARKS
KAILUA KONA    PTSUNNY   86  74  67 S10       29.94S HX  94
HILO           MOSUNNY   86  74  67 E10       29.98F HX  94
HONOKAA*         N/A     75 N/A N/A VRB1        N/A
KAWAIHAE MWT*    N/A     88 N/A N/A SW9         N/A
KAWAIHAE*        N/A     82 N/A N/A SW6       29.94F
SOUTH POINT*     N/A     81 N/A N/A N20G29      N/A
UPOLU AIRPORT*   N/A    N/A N/A N/A NE18G26     N/A
KAMUELA*       MOCLDY    73  68  83 NE21      30.08S
HAKALAU*         N/A     73  54  50 SE6G14      N/A
KALOKO-HONOKO* NOT AVBL
PALI 2*          N/A     81  70  69 NE10G26     N/A
KEALAKOMO*       N/A     86  73  66 E22G30      N/A  HX  93
KAUPULEHU*     NOT AVBL
KAPAPALA*        N/A     81  72  74 E6G13       N/A
LOWER KAHUKU*    N/A     70  68  94 NE3G12      N/A
PUHE CS*         N/A     88  73  62 SW3         N/A  HX  96
PUHO CS*         N/A     89  71  55 W3          N/A  HX  95
PTA KEAMUKU*     N/A     73  66  78 CALM        N/A
WAIKOLOA*        N/A     82  68  61 N2G12       N/A
$$

HIZ027>028-270200-
BIG ISLAND OF HAWAII INTERIOR AND SUMMMITS-

CITY           SKY/WX    TMP DP  RH WIND       PRES   REMARKS
BRADSHAW FIELD SUNNY     77  43  29 SE22G36   30.30F
MK VISITOR CEN   N/A     57  43  58 E12         N/A
MAUNA KEA*       N/A     39  32  75 S21         N/A  WCI  29
MAUNA LOA*       N/A    N/A N/A N/A MISG        N/A
MAUNA LOA 1*   NOT AVBL
PTA KIPUKA*      N/A     70  59  68 NW12G20     N/A
PTA RANGE 17*    N/A     79  41  25 E18G30      N/A
PTA WEST*        N/A     70  64  83 N13G21      N/A
NENE CABIN*      N/A     70  55  60 E12G26      N/A
AHUMOA*          N/A     65  60  84 VRB5G12     N/A
PTA PORTABLE*  NOT AVBL
PUU MALI*        N/A     72  48  43 E23G41      N/A
$$

HIC003-270200-
NORTHWEST ISLANDS-

CITY           SKY/WX    TMP DP  RH WIND       PRES   REMARKS
MIDWAY ISLAND  PTSUNNY   81  70  69 E13       30.11F
MIDWAY NOS*      N/A     81 N/A N/A MISG      30.10F
FRENCH FRIGATE NOT AVBL
$$

PHZ110>124-180-270200-
BUOY REPORTS

STATION/POSITION TIME  TEMP    WIND        PRES    WAVE   SWELL
                       AIR SEA DIR/SP/G            HT/PER HT/DIR
                 (UTC) (F)     (DEG/KT/KT) (MB)    (FT/S) (FT/D)
BUOY 51001       0100   81 81   70/ 14/ 17 1014.8F
BUOY 51101       0050   79 79  110/ 12/ 14 1016.2F   5/ 8   5/ 80
BUOY 51100       NOT AVBL
BUOY 51002       0050   80 83   50/ 10/ 12 1012.5F   6/ 9   5
BUOY 51003       0050   82 82  100/ 14/ 16 1013.9F   5/ 8   3/ 60
BUOY 51004       0050   81 81   60/ 16/ 19 1013.1F   6/ 6   3/170
BARBERS PT BUOY  NOT AVBL
WAIMEA BAY BUOY  0104      81                N/A     3/ 8
KAILUA BAY BUOY  0111      80                N/A     5/ 6   2/ 70
LANAI BUOY       0115      83                N/A     3/13   2/190
BARBERS PT 2     NOT AVBL
PAUWELA MAUI     0109      80                N/A     5/ 8
HILO             0112      80                N/A     4/ 8   2/130
KANEOHE BAY BUOY 0106      79                N/A     4/ 9
HANALEI KAUAI    NOT AVBL
KAHULUI HARBOR   0100   82 81                N/A
HONOLULU HARBOR  0100   85 81                N/A
KILO NALU        NOT AVBL
HILO HARBOR      0100   81 79                N/A
MOKUOLOE         0000   83 83   90/ 10/ 13 1015.9F
NAWILIWILI       0100   79 80                N/A
WHOTS BUOY       NOT AVBL
BUOY 51028       NOT AVBL
$$

......................KEY........................................
  SKY/WX - SKY CONDITIONS/PRESENT WEATHER
  TMP    - TEMPERATURE IN FAHRENHEIT
  DWPT   - DEWPOINT IN FAHRENHEIT
  RH     - RELATIVE HUMIDITY IN PERCENT
  WIND   - DIRECTION AND SPEED /MPH FOR ISLANDS...KTS FOR BUOYS/
  PRES   - MEAN SEA LEVEL PRESSURE IN INCHES OF HG
  VSB    - VISIBILITY IN MILES
  HX     - HEAT INDEX
  WCI    - WIND CHILL INDEX
  VRB    - VARIABLE WIND DIRECTION
  N/A    - NOT AVAILABLE



USA.gov is the U.S. government's official web portal to all federal, state and local government web resources and services.